Location: Albany
(35.0170°S, 117.8920°E)
Time: 17:35:47
(UTC+08:00)

Explorer 11/Cluster Stage 4 - Pass Details

Date: 25 January 2021
Orbit: 467 x 1257 km, 28.8° (Epoch: 02 March)

Event Time Altitude Azimuth Distance (km) Brightness Sun altitude
Rises 08:32:46 0° 300° (WNW) 3,646 9.6 37.5°
Reaches altitude 10° 08:35:54 10° 308° (NW) 2,557 8.9 38.1°
Maximum altitude 08:41:14 33° 10° (N) 1,271 8.2 39.2°
Drops below altitude 10° 08:45:37 10° 73° (ENE) 2,084 9.9 40.1°
Sets 08:47:56 0° 83° (E) 2,884 10.4 40.6°
